Regional Weather Roundup
Issued by NWS Newport/Morehead, NC

Current Version | Previous Version | Graphics & Text | Print | Product List | Glossary On
Versions: 1 2 3 4 5 6 7 8 9 10 11 12 13 14 15 16 17 18 19 20 21 22 23 24 25 26 27 28 29 30 31 32 33 34 35 36 37 38 39 40 41 42 43 44 45 46 47 48 49 50
000 ASUS42 KMHX 301613 RWRMHX WEATHER ROUNDUP FOR EASTERN NORTH CAROLINA NATIONAL WEATHER SERVICE NEWPORT/MOREHEAD CITY NC 1200 PM EDT TUE AUG 30 2016 NOTE: "FAIR" INDICATES FEW OR NO CLOUDS BELOW 12,000 FEET WITH NO SIGNIFICANT WEATHER AND/OR OBSTRUCTIONS TO VISIBILITY NCZ015>017-031-032-045>047-102-103-301700- NORTH COAST CITY SKY/WX TMP DP RH WIND PRES REMARKS EDENTON CLOUDY 84 72 65 E7 30.09S ELIZABETH CITY CLOUDY 83 73 72 NE14 30.08F KITTY HAWK CLOUDY 87 80 80 NE9 30.06F HX 101 MANTEO CLOUDY 85 77 77 E18 30.07S $$ NCZ045>047-081-094-103-104-301700- CENTRAL COAST CITY SKY/WX TMP DP RH WIND PRES REMARKS FRISCO MOSUNNY 85 76 74 E13G18 30.03F $$ NCZ095-097-098-100-101-301700- SOUTHERN COAST CITY SKY/WX TMP DP RH WIND PRES REMARKS BEAUFORT PTSUNNY 82 79 90 NE5 30.04F CEDAR ISLAND NOT AVBL JACKSONVILLE CLOUDY 84 74 71 NE7 30.06F PINEY ISLAND NOT AVBL WILMINGTON PTSUNNY 83 75 77 NE8 30.06F $$ NCZ011>013-027>030-043-044-078>080-089-090>093-098-301700- COASTAL PLAIN CITY SKY/WX TMP DP RH WIND PRES REMARKS AHOSKIE MOSUNNY 84 69 59 N7 30.09F CLINTON SUNNY 84 70 61 E5 30.09F ELIZABETHTOWN PTSUNNY 84 74 71 N3 30.08F GOLDSBORO MOSUNNY 85 68 57 N9 30.08F GREENVILLE MOSUNNY 88 70 55 NE5 30.10F HAVELOCK PTSUNNY 85 75 72 N12 30.06F KENANSVILLE PTSUNNY 82 72 69 NE5 30.09F KINSTON MOSUNNY 84 64 51 N8 30.09F NEW BERN PTSUNNY 85 76 74 N13 30.07F RICHLANDS CLOUDY 82 75 79 N8 30.08F ROCKY MOUNT SUNNY 86 68 54 VRB6 30.11F WASHINGTON MOSUNNY 82 74 74 NE8 30.08S WHITEVILLE CLOUDY 82 71 71 N3 30.08S $$ AMZ130-135-150-152-154-156-158-170-250-252-270-ANZ085-086-088-633-658-670-301700- MARINE OBSERVATIONS STATION/POSITION TIME TEMP WIND PRES WAVE SWELL AIR SEA DIR/SP/G HT/PER HT/PER (UTC) (F) (DEG/KT/KT) (MB) (FT/S) (FT/S) CHESAPEAKE LIGHT NOT AVBL 64 E VA BEACH 1550 80 80 50/ 12/ 14 1018.2 5/12 5/12 DUCK 1500 80 79 40/ 14/ 17 1018.2 2 E DUCK 1511 79 N/A 4/11 2/11 OREGON INLET 1500 81 81 40/ 11/ 15 1017.9 13E OREGON INLT 1600 80 N/A 5/ 7 5/ 7 HATTERAS CG 1500 82 82 30/ 11/ 15 1016.7 DIAMOND BUOY 1550 83 84 60/ 12/ 16 1016.4 7/12 7/12 CAPE LOOKOUT 1600 82 10/ 11/ 14 1016.8 BEAUFORT LAB 1500 81 81 40/ 3/ 9 1017.1 30 SE NEW RVR IN 1508 81 84 10/ 12/ 17 1017.4 30 SE NEW RVR IN 1525 84 N/A 4/13 2/13 27 SE WRIGHTSVLE 1508 80 84 360/ 12/ 16 1017.8 5 SE WRIGHTSVLE 1508 78 83 20/ 10/ 14 1019.0 225 S CAPE HAT 1550 83 84 260/ 12/ 14 1016.8 4/10 3/10 41 SE CHARLESTON 1550 79 84 260/ 4/ 6 1018.2 3/12 3/12 $$

USA.gov is the U.S. government's official web portal to all federal, state and local government web resources and services.